Time,TemperatureF,DewpointF,PressureIn,WindDirection,WindDirectionDegrees,WindSpeedMPH,WindSpeedGustMPH,Humidity,HourlyPrecipIn,Conditions,Clouds,dailyrainin,SoftwareType,DateUTC
2013-01-26 00:02:00,15.4,3.7,30.22,North,-999,-999.0,-999.0,59,0.00,,,0.00,meteohub,2013-01-26 06:02:00,
2013-01-26 00:07:00,15.4,3.7,30.22,North,-999,-999.0,-999.0,59,0.00,,,0.00,meteohub,2013-01-26 06:07:00,
2013-01-26 00:12:00,15.3,3.6,30.22,North,-999,-999.0,-999.0,59,0.00,,,0.00,meteohub,2013-01-26 06:12:00,
2013-01-26 00:17:00,15.3,3.6,30.23,North,-999,-999.0,-999.0,59,0.00,,,0.00,meteohub,2013-01-26 06:17:00,
2013-01-26 00:22:00,15.3,3.6,30.23,North,-999,-999.0,-999.0,59,0.00,,,0.00,meteohub,2013-01-26 06:22:00,
2013-01-26 00:27:00,15.3,3.9,30.24,North,-999,-999.0,-999.0,60,0.00,,,0.00,meteohub,2013-01-26 06:27:00,
2013-01-26 00:32:00,15.1,3.7,30.24,North,-999,-999.0,-999.0,60,0.00,,,0.00,meteohub,2013-01-26 06:32:00,
2013-01-26 00:37:00,15.1,3.7,30.23,North,-999,-999.0,-999.0,60,0.00,,,0.00,meteohub,2013-01-26 06:37:00,
2013-01-26 00:42:00,14.9,3.6,30.24,North,-999,-999.0,-999.0,60,0.00,,,0.00,meteohub,2013-01-26 06:42:00,
2013-01-26 00:47:00,14.7,3.4,30.25,North,-999,-999.0,-999.0,60,0.00,,,0.00,meteohub,2013-01-26 06:47:00,
2013-01-26 00:52:00,14.5,3.2,30.24,North,-999,-999.0,-999.0,60,0.00,,,0.00,meteohub,2013-01-26 06:52:00,
2013-01-26 00:57:00,14.4,3.0,30.25,North,-999,-999.0,-999.0,60,0.00,,,0.00,meteohub,2013-01-26 06:57:00,
2013-01-26 01:02:00,14.4,3.0,30.25,North,-999,-999.0,-999.0,60,0.00,,,0.00,meteohub,2013-01-26 07:02:00,
2013-01-26 01:07:00,14.2,2.8,30.25,North,-999,-999.0,-999.0,60,0.00,,,0.00,meteohub,2013-01-26 07:07:00,
2013-01-26 01:12:00,14.2,2.8,30.25,North,-999,-999.0,-999.0,60,0.00,,,0.00,meteohub,2013-01-26 07:12:00,
2013-01-26 01:17:00,14.0,2.7,30.25,North,-999,-999.0,-999.0,60,0.00,,,0.00,meteohub,2013-01-26 07:17:00,
2013-01-26 01:22:00,14.0,2.7,30.26,North,-999,-999.0,-999.0,60,0.00,,,0.00,meteohub,2013-01-26 07:22:00,
2013-01-26 01:27:00,13.8,2.8,30.26,North,-999,-999.0,-999.0,61,0.00,,,0.00,meteohub,2013-01-26 07:27:00,
2013-01-26 01:32:00,13.6,2.7,30.26,North,-999,-999.0,-999.0,61,0.00,,,0.00,meteohub,2013-01-26 07:32:00,
2013-01-26 01:37:00,13.5,2.5,30.26,North,-999,-999.0,-999.0,61,0.00,,,0.00,meteohub,2013-01-26 07:37:00,
2013-01-26 01:42:00,13.5,2.8,30.27,North,-999,-999.0,-999.0,62,0.00,,,0.00,meteohub,2013-01-26 07:42:00,
2013-01-26 01:47:00,13.3,2.7,30.27,North,-999,-999.0,-999.0,62,0.00,,,0.00,meteohub,2013-01-26 07:47:00,
2013-01-26 01:52:00,13.1,2.5,30.27,North,-999,-999.0,-999.0,62,0.00,,,0.00,meteohub,2013-01-26 07:52:00,
2013-01-26 01:57:00,12.9,2.3,30.27,North,-999,-999.0,-999.0,62,0.00,,,0.00,meteohub,2013-01-26 07:57:00,
2013-01-26 02:02:00,12.7,2.1,30.28,North,-999,-999.0,-999.0,62,0.00,,,0.00,meteohub,2013-01-26 08:02:00,
2013-01-26 02:07:00,12.7,2.1,30.28,North,-999,-999.0,-999.0,62,0.00,,,0.00,meteohub,2013-01-26 08:07:00,
2013-01-26 02:12:00,12.6,1.9,30.28,North,-999,-999.0,-999.0,62,0.00,,,0.00,meteohub,2013-01-26 08:12:00,
2013-01-26 02:17:00,12.4,1.8,30.28,North,-999,-999.0,-999.0,62,0.00,,,0.00,meteohub,2013-01-26 08:17:00,
2013-01-26 02:22:00,12.4,1.8,30.28,North,-999,-999.0,-999.0,62,0.00,,,0.00,meteohub,2013-01-26 08:22:00,
2013-01-26 02:27:00,12.2,1.4,30.29,North,-999,-999.0,-999.0,61,0.00,,,0.00,meteohub,2013-01-26 08:27:00,
2013-01-26 02:32:00,12.0,1.6,30.29,North,-999,-999.0,-999.0,62,0.00,,,0.00,meteohub,2013-01-26 08:32:00,
2013-01-26 02:37:00,12.0,1.6,30.28,North,-999,-999.0,-999.0,62,0.00,,,0.00,meteohub,2013-01-26 08:37:00,
2013-01-26 02:42:00,11.8,1.4,30.29,North,-999,-999.0,-999.0,62,0.00,,,0.00,meteohub,2013-01-26 08:42:00,
2013-01-26 02:47:00,11.7,1.2,30.29,North,-999,-999.0,-999.0,62,0.00,,,0.00,meteohub,2013-01-26 08:47:00,
2013-01-26 02:52:00,11.5,1.0,30.29,North,-999,-999.0,-999.0,62,0.00,,,0.00,meteohub,2013-01-26 08:52:00,
2013-01-26 02:57:00,11.5,1.0,30.29,North,-999,-999.0,-999.0,62,0.00,,,0.00,meteohub,2013-01-26 08:57:00,
2013-01-26 03:02:00,11.3,0.9,30.29,North,-999,-999.0,-999.0,62,0.00,,,0.00,meteohub,2013-01-26 09:02:00,
2013-01-26 03:07:00,11.3,0.9,30.29,North,-999,-999.0,-999.0,62,0.00,,,0.00,meteohub,2013-01-26 09:07:00,
2013-01-26 03:12:00,11.1,0.7,30.29,North,-999,-999.0,-999.0,62,0.00,,,0.00,meteohub,2013-01-26 09:12:00,
2013-01-26 03:17:00,10.9,0.5,30.30,North,-999,-999.0,-999.0,62,0.00,,,0.00,meteohub,2013-01-26 09:17:00,
2013-01-26 03:27:00,10.8,0.3,30.30,North,-999,-999.0,-999.0,62,0.00,,,0.00,meteohub,2013-01-26 09:27:00,
2013-01-26 03:32:00,10.8,0.3,30.30,North,-999,-999.0,-999.0,62,0.00,,,0.00,meteohub,2013-01-26 09:32:00,
2013-01-26 03:37:00,10.6,0.1,30.30,North,-999,-999.0,-999.0,62,0.00,,,0.00,meteohub,2013-01-26 09:37:00,
2013-01-26 03:42:00,10.6,0.1,30.31,North,-999,-999.0,-999.0,62,0.00,,,0.00,meteohub,2013-01-26 09:42:00,
2013-01-26 03:47:00,10.6,0.1,30.32,North,-999,-999.0,-999.0,62,0.00,,,0.00,meteohub,2013-01-26 09:47:00,
2013-01-26 03:52:00,10.4,0.0,30.31,North,-999,-999.0,-999.0,62,0.00,,,0.00,meteohub,2013-01-26 09:52:00,
2013-01-26 04:02:00,10.2,-1.7,30.32,North,-999,-999.0,-999.0,58,0.00,,,0.00,meteohub,2013-01-26 10:02:00,
2013-01-26 04:07:00,10.0,-1.8,30.32,North,-999,-999.0,-999.0,58,0.00,,,0.00,meteohub,2013-01-26 10:07:00,
2013-01-26 04:12:00,10.0,-1.8,30.32,North,-999,-999.0,-999.0,58,0.00,,,0.00,meteohub,2013-01-26 10:12:00,
2013-01-26 04:17:00,9.9,-2.0,30.32,North,-999,-999.0,-999.0,58,0.00,,,0.00,meteohub,2013-01-26 10:17:00,
2013-01-26 04:22:00,9.9,-2.0,30.32,North,-999,-999.0,-999.0,58,0.00,,,0.00,meteohub,2013-01-26 10:22:00,
2013-01-26 04:27:00,10.0,-1.8,30.31,North,-999,-999.0,-999.0,58,0.00,,,0.00,meteohub,2013-01-26 10:27:00,
2013-01-26 04:32:00,9.9,-2.0,30.32,North,-999,-999.0,-999.0,58,0.00,,,0.00,meteohub,2013-01-26 10:32:00,
2013-01-26 04:37:00,9.7,-2.2,30.32,North,-999,-999.0,-999.0,58,0.00,,,0.00,meteohub,2013-01-26 10:37:00,
2013-01-26 04:42:00,9.7,-2.2,30.32,North,-999,-999.0,-999.0,58,0.00,,,0.00,meteohub,2013-01-26 10:42:00,
2013-01-26 04:47:00,9.7,-2.2,30.32,North,-999,-999.0,-999.0,58,0.00,,,0.00,meteohub,2013-01-26 10:47:00,
2013-01-26 04:52:00,9.5,-2.4,30.32,North,-999,-999.0,-999.0,58,0.00,,,0.00,meteohub,2013-01-26 10:52:00,
2013-01-26 04:57:00,9.5,-2.4,30.32,North,-999,-999.0,-999.0,58,0.00,,,0.00,meteohub,2013-01-26 10:57:00,
2013-01-26 05:02:00,9.5,-2.4,30.32,North,-999,-999.0,-999.0,58,0.00,,,0.00,meteohub,2013-01-26 11:02:00,
2013-01-26 05:07:00,9.5,-2.4,30.32,North,-999,-999.0,-999.0,58,0.00,,,0.00,meteohub,2013-01-26 11:07:00,
2013-01-26 05:12:00,9.3,-2.9,30.32,North,-999,-999.0,-999.0,57,0.00,,,0.00,meteohub,2013-01-26 11:12:00,
2013-01-26 05:17:00,9.3,-2.9,30.33,North,-999,-999.0,-999.0,57,0.00,,,0.00,meteohub,2013-01-26 11:17:00,
2013-01-26 05:22:00,9.3,-2.9,30.33,North,-999,-999.0,-999.0,57,0.00,,,0.00,meteohub,2013-01-26 11:22:00,
2013-01-26 05:27:00,9.1,-2.9,30.33,North,-999,-999.0,-999.0,57,0.00,,,0.00,meteohub,2013-01-26 11:27:00,
2013-01-26 05:32:00,9.1,-2.9,30.34,North,-999,-999.0,-999.0,57,0.00,,,0.00,meteohub,2013-01-26 11:32:00,
2013-01-26 05:37:00,9.1,-2.9,30.34,North,-999,-999.0,-999.0,57,0.00,,,0.00,meteohub,2013-01-26 11:37:00,
2013-01-26 05:42:00,9.0,-3.1,30.34,North,-999,-999.0,-999.0,57,0.00,,,0.00,meteohub,2013-01-26 11:42:00,
2013-01-26 05:47:00,8.8,-3.3,30.34,North,-999,-999.0,-999.0,57,0.00,,,0.00,meteohub,2013-01-26 11:47:00,
2013-01-26 05:52:00,8.6,-3.5,30.35,North,-999,-999.0,-999.0,57,0.00,,,0.00,meteohub,2013-01-26 11:52:00,
2013-01-26 05:57:00,8.6,-3.5,30.35,North,-999,-999.0,-999.0,57,0.00,,,0.00,meteohub,2013-01-26 11:57:00,
2013-01-26 06:02:00,8.4,-3.3,30.35,North,-999,-999.0,-999.0,58,0.00,,,0.00,meteohub,2013-01-26 12:02:00,
2013-01-26 06:07:00,8.4,-2.9,30.35,North,-999,-999.0,-999.0,59,0.00,,,0.00,meteohub,2013-01-26 12:07:00,
2013-01-26 06:12:00,8.4,-2.9,30.35,North,-999,-999.0,-999.0,59,0.00,,,0.00,meteohub,2013-01-26 12:12:00,
2013-01-26 06:17:00,8.4,-2.9,30.36,North,-999,-999.0,-999.0,59,0.00,,,0.00,meteohub,2013-01-26 12:17:00,
2013-01-26 06:22:00,8.2,-3.1,30.36,North,-999,-999.0,-999.0,59,0.00,,,0.00,meteohub,2013-01-26 12:22:00,
2013-01-26 06:27:00,8.2,-3.1,30.36,North,-999,-999.0,-999.0,59,0.00,,,0.00,meteohub,2013-01-26 12:27:00,
2013-01-26 06:32:00,8.2,-3.1,30.36,North,-999,-999.0,-999.0,59,0.00,,,0.00,meteohub,2013-01-26 12:32:00,
2013-01-26 06:37:00,8.2,-3.1,30.36,North,-999,-999.0,-999.0,59,0.00,,,0.00,meteohub,2013-01-26 12:37:00,
2013-01-26 06:42:00,8.1,-3.3,30.37,North,-999,-999.0,-999.0,59,0.00,,,0.00,meteohub,2013-01-26 12:42:00,
2013-01-26 06:47:00,8.1,-3.3,30.37,North,-999,-999.0,-999.0,59,0.00,,,0.00,meteohub,2013-01-26 12:47:00,
2013-01-26 06:52:00,8.1,-3.3,30.37,North,-999,-999.0,-999.0,59,0.00,,,0.00,meteohub,2013-01-26 12:52:00,
2013-01-26 06:57:00,7.9,-3.5,30.38,North,-999,-999.0,-999.0,59,0.00,,,0.00,meteohub,2013-01-26 12:57:00,
2013-01-26 07:02:00,7.9,-3.5,30.38,North,-999,-999.0,-999.0,59,0.00,,,0.00,meteohub,2013-01-26 13:02:00,
2013-01-26 07:07:00,7.9,-3.5,30.38,North,-999,-999.0,-999.0,59,0.00,,,0.00,meteohub,2013-01-26 13:07:00,
2013-01-26 07:12:00,7.7,-3.6,30.38,North,-999,-999.0,-999.0,59,0.00,,,0.00,meteohub,2013-01-26 13:12:00,
2013-01-26 07:17:00,7.7,-3.6,30.38,North,-999,-999.0,-999.0,59,0.00,,,0.00,meteohub,2013-01-26 13:17:00,
2013-01-26 07:22:00,7.9,-3.5,30.38,North,-999,-999.0,-999.0,59,0.00,,,0.00,meteohub,2013-01-26 13:22:00,
2013-01-26 07:27:00,7.9,-3.5,30.38,North,-999,-999.0,-999.0,59,0.00,,,0.00,meteohub,2013-01-26 13:27:00,
2013-01-26 07:32:00,7.9,-3.5,30.38,NW,315,0.0,-999.0,59,0.00,,,0.00,meteohub,2013-01-26 13:32:00,
2013-01-26 07:37:00,7.7,-3.6,30.39,NW,315,0.0,0.0,59,0.00,,,0.00,meteohub,2013-01-26 13:37:00,
2013-01-26 07:42:00,7.9,-3.5,30.39,North,-999,-999.0,0.0,59,0.00,,,0.00,meteohub,2013-01-26 13:42:00,
2013-01-26 07:47:00,7.7,-3.6,30.40,North,-999,-999.0,0.0,59,0.00,,,0.00,meteohub,2013-01-26 13:47:00,
2013-01-26 07:52:00,8.1,-3.3,30.40,North,-999,-999.0,0.0,59,0.00,,,0.00,meteohub,2013-01-26 13:52:00,
2013-01-26 08:02:00,8.6,-3.1,30.40,North,-999,-999.0,-999.0,58,0.00,,,0.00,meteohub,2013-01-26 14:02:00,
2013-01-26 08:07:00,8.8,-2.9,30.40,North,-999,-999.0,-999.0,58,0.00,,,0.00,meteohub,2013-01-26 14:07:00,
2013-01-26 08:12:00,9.0,-2.7,30.40,North,-999,-999.0,-999.0,58,0.00,,,0.00,meteohub,2013-01-26 14:12:00,
2013-01-26 08:17:00,9.1,-2.6,30.40,North,-999,-999.0,-999.0,58,0.00,,,0.00,meteohub,2013-01-26 14:17:00,
2013-01-26 08:22:00,9.5,-2.7,30.40,North,-999,-999.0,-999.0,57,0.00,,,0.00,meteohub,2013-01-26 14:22:00,
2013-01-26 08:27:00,9.9,-2.4,30.40,North,-999,-999.0,-999.0,57,0.00,,,0.00,meteohub,2013-01-26 14:27:00,
2013-01-26 08:32:00,10.0,-2.6,30.40,North,-999,-999.0,-999.0,56,0.00,,,0.00,meteohub,2013-01-26 14:32:00,
2013-01-26 08:42:00,11.3,-0.2,30.40,North,-999,-999.0,-999.0,59,0.00,,,0.00,meteohub,2013-01-26 14:42:00,
2013-01-26 08:47:00,11.8,-0.4,30.40,North,-999,-999.0,-999.0,57,0.00,,,0.00,meteohub,2013-01-26 14:47:00,
2013-01-26 08:52:00,12.0,-0.6,30.41,North,-999,-999.0,-999.0,56,0.00,,,0.00,meteohub,2013-01-26 14:52:00,
2013-01-26 08:57:00,12.2,-1.3,30.41,North,-999,-999.0,-999.0,54,0.00,,,0.00,meteohub,2013-01-26 14:57:00,
2013-01-26 09:02:00,12.6,-1.3,30.41,North,-999,-999.0,-999.0,53,0.00,,,0.00,meteohub,2013-01-26 15:02:00,
2013-01-26 09:07:00,11.8,-2.0,30.42,North,-999,-999.0,-999.0,53,0.00,,,0.00,meteohub,2013-01-26 15:07:00,
2013-01-26 09:12:00,11.8,-1.7,30.42,North,-999,-999.0,-999.0,54,0.00,,,0.00,meteohub,2013-01-26 15:12:00,
2013-01-26 09:17:00,12.7,-1.1,30.42,North,-999,-999.0,-999.0,53,0.00,,,0.00,meteohub,2013-01-26 15:17:00,
2013-01-26 09:22:00,13.5,-0.4,30.42,North,-999,-999.0,-999.0,53,0.00,,,0.00,meteohub,2013-01-26 15:22:00,
2013-01-26 09:27:00,14.4,-0.4,30.42,North,-999,-999.0,-999.0,51,0.00,,,0.00,meteohub,2013-01-26 15:27:00,
2013-01-26 09:32:00,14.5,-0.8,30.42,North,-999,-999.0,-999.0,50,0.00,,,0.00,meteohub,2013-01-26 15:32:00,
2013-01-26 09:37:00,14.7,-0.9,30.42,North,-999,-999.0,-999.0,49,0.00,,,0.00,meteohub,2013-01-26 15:37:00,
2013-01-26 09:42:00,14.7,-1.5,30.43,North,-999,-999.0,-999.0,48,0.00,,,0.00,meteohub,2013-01-26 15:42:00,
2013-01-26 09:47:00,15.3,-0.4,30.42,North,-999,-999.0,-999.0,49,0.00,,,0.00,meteohub,2013-01-26 15:47:00,
2013-01-26 09:52:00,15.6,-0.6,30.42,North,-999,-999.0,-999.0,48,0.00,,,0.00,meteohub,2013-01-26 15:52:00,
2013-01-26 09:57:00,15.8,-1.3,30.42,North,-999,-999.0,-999.0,46,0.00,,,0.00,meteohub,2013-01-26 15:57:00,
2013-01-26 10:02:00,15.3,-1.3,30.43,North,-999,-999.0,-999.0,47,0.00,,,0.00,meteohub,2013-01-26 16:02:00,
2013-01-26 10:07:00,15.4,-0.8,30.43,North,-999,-999.0,-999.0,48,0.00,,,0.00,meteohub,2013-01-26 16:07:00,
2013-01-26 10:12:00,16.0,-0.2,30.43,North,-999,-999.0,-999.0,48,0.00,,,0.00,meteohub,2013-01-26 16:12:00,
2013-01-26 10:17:00,16.2,-0.6,30.43,North,-999,-999.0,-999.0,47,0.00,,,0.00,meteohub,2013-01-26 16:17:00,
2013-01-26 10:22:00,16.5,-0.6,30.43,North,-999,-999.0,-999.0,46,0.00,,,0.00,meteohub,2013-01-26 16:22:00,
2013-01-26 10:27:00,17.4,-0.2,30.43,North,-999,-999.0,-999.0,45,0.00,,,0.00,meteohub,2013-01-26 16:27:00,
2013-01-26 10:32:00,17.1,-1.1,30.43,North,-999,-999.0,-999.0,44,0.00,,,0.00,meteohub,2013-01-26 16:32:00,
2013-01-26 10:42:00,17.6,-1.1,30.43,North,-999,-999.0,-999.0,43,0.00,,,0.00,meteohub,2013-01-26 16:42:00,
2013-01-26 10:47:00,18.5,-0.2,30.42,North,-999,-999.0,-999.0,43,0.00,,,0.00,meteohub,2013-01-26 16:47:00,
2013-01-26 10:52:00,19.2,0.0,30.42,North,-999,-999.0,-999.0,42,0.00,,,0.00,meteohub,2013-01-26 16:52:00,
2013-01-26 10:57:00,19.0,-0.8,30.42,WNW,293,0.0,-999.0,41,0.00,,,0.00,meteohub,2013-01-26 16:57:00,
2013-01-26 11:02:00,19.4,1.6,30.42,WNW,293,0.0,0.0,45,0.00,,,0.00,meteohub,2013-01-26 17:02:00,
2013-01-26 11:07:00,19.8,1.8,30.42,North,-999,-999.0,0.0,45,0.00,,,0.00,meteohub,2013-01-26 17:07:00,
2013-01-26 11:12:00,19.9,1.9,30.42,North,-999,-999.0,0.0,45,0.00,,,0.00,meteohub,2013-01-26 17:12:00,
2013-01-26 11:17:00,21.0,2.5,30.42,SW,225,0.0,0.0,44,0.00,,,0.00,meteohub,2013-01-26 17:17:00,
2013-01-26 11:22:00,21.6,1.9,30.42,North,-999,-999.0,0.0,42,0.00,,,0.00,meteohub,2013-01-26 17:22:00,
2013-01-26 11:27:00,21.2,1.8,30.43,North,-999,-999.0,0.0,42,0.00,,,0.00,meteohub,2013-01-26 17:27:00,
2013-01-26 11:32:00,21.9,2.3,30.42,North,-999,-999.0,-999.0,42,0.00,,,0.00,meteohub,2013-01-26 17:32:00,
2013-01-26 11:37:00,23.4,3.2,30.41,North,-999,-999.0,-999.0,41,0.00,,,0.00,meteohub,2013-01-26 17:37:00,
2013-01-26 11:42:00,23.0,2.3,30.42,North,-999,-999.0,-999.0,40,0.00,,,0.00,meteohub,2013-01-26 17:42:00,
2013-01-26 11:47:00,23.2,2.5,30.42,North,-999,-999.0,-999.0,40,0.00,,,0.00,meteohub,2013-01-26 17:47:00,
2013-01-26 11:52:00,23.7,2.8,30.41,North,-999,-999.0,-999.0,40,0.00,,,0.00,meteohub,2013-01-26 17:52:00,
2013-01-26 11:57:00,23.7,1.8,30.40,North,-999,-999.0,-999.0,38,0.00,,,0.00,meteohub,2013-01-26 17:57:00,
2013-01-26 12:02:00,23.7,1.2,30.40,North,-999,-999.0,-999.0,37,0.00,,,0.00,meteohub,2013-01-26 18:02:00,
2013-01-26 12:07:00,23.0,0.7,30.40,North,-999,-999.0,-999.0,37,0.00,,,0.00,meteohub,2013-01-26 18:07:00,
2013-01-26 12:12:00,23.5,1.6,30.40,North,-999,-999.0,-999.0,38,0.00,,,0.00,meteohub,2013-01-26 18:12:00,
2013-01-26 12:17:00,24.6,2.1,30.40,North,-999,-999.0,-999.0,37,0.00,,,0.00,meteohub,2013-01-26 18:17:00,
2013-01-26 12:22:00,25.2,1.4,30.39,North,-999,-999.0,-999.0,35,0.00,,,0.00,meteohub,2013-01-26 18:22:00,
2013-01-26 12:27:00,24.8,-0.2,30.39,North,-999,-999.0,-999.0,33,0.00,,,0.00,meteohub,2013-01-26 18:27:00,
2013-01-26 12:32:00,25.0,0.0,30.40,North,-999,-999.0,-999.0,33,0.00,,,0.00,meteohub,2013-01-26 18:32:00,
2013-01-26 12:37:00,25.2,-0.6,30.39,North,-999,-999.0,-999.0,32,0.00,,,0.00,meteohub,2013-01-26 18:37:00,
2013-01-26 12:42:00,27.1,1.2,30.39,North,-999,-999.0,-999.0,32,0.00,,,0.00,meteohub,2013-01-26 18:42:00,
2013-01-26 12:47:00,26.2,-0.2,30.39,North,-999,-999.0,-999.0,31,0.00,,,0.00,meteohub,2013-01-26 18:47:00,
2013-01-26 12:52:00,27.7,0.3,30.38,North,-999,-999.0,-999.0,30,0.00,,,0.00,meteohub,2013-01-26 18:52:00,
2013-01-26 12:57:00,28.4,3.0,30.38,North,-999,-999.0,-999.0,33,0.00,,,0.00,meteohub,2013-01-26 18:57:00,
2013-01-26 13:02:00,28.8,2.7,30.39,North,-999,-999.0,-999.0,32,0.00,,,0.00,meteohub,2013-01-26 19:02:00,
2013-01-26 13:07:00,29.1,3.6,30.38,North,-999,-999.0,-999.0,33,0.00,,,0.00,meteohub,2013-01-26 19:07:00,
2013-01-26 13:12:00,31.5,5.0,30.38,North,-999,-999.0,-999.0,32,0.00,,,0.00,meteohub,2013-01-26 19:12:00,
2013-01-26 13:17:00,29.7,0.5,30.38,North,-999,-999.0,-999.0,28,0.00,,,0.00,meteohub,2013-01-26 19:17:00,
2013-01-26 13:22:00,27.7,-4.4,30.39,North,-999,-999.0,-999.0,24,0.00,,,0.00,meteohub,2013-01-26 19:22:00,
2013-01-26 13:27:00,27.1,-4.9,30.38,North,-999,-999.0,-999.0,24,0.00,,,0.00,meteohub,2013-01-26 19:27:00,
2013-01-26 13:32:00,29.1,0.1,30.38,North,-999,-999.0,-999.0,28,0.00,,,0.00,meteohub,2013-01-26 19:32:00,
2013-01-26 13:37:00,28.6,-0.4,30.39,North,-999,-999.0,-999.0,28,0.00,,,0.00,meteohub,2013-01-26 19:37:00,
2013-01-26 13:42:00,28.4,-0.6,30.38,North,-999,-999.0,-999.0,28,0.00,,,0.00,meteohub,2013-01-26 19:42:00,
2013-01-26 13:47:00,28.0,-4.2,30.39,North,-999,-999.0,-999.0,24,0.00,,,0.00,meteohub,2013-01-26 19:47:00,
2013-01-26 13:52:00,31.6,2.3,30.38,North,-999,-999.0,-999.0,28,0.00,,,0.00,meteohub,2013-01-26 19:52:00,
2013-01-26 13:57:00,30.9,0.0,30.38,North,-999,-999.0,-999.0,26,0.00,,,0.00,meteohub,2013-01-26 19:57:00,
2013-01-26 14:02:00,30.4,-1.3,30.38,NW,315,0.0,-999.0,25,0.00,,,0.00,meteohub,2013-01-26 20:02:00,
2013-01-26 14:07:00,30.0,-0.8,30.38,North,-999,-999.0,0.0,26,0.00,,,0.00,meteohub,2013-01-26 20:07:00,
2013-01-26 14:12:00,30.6,0.5,30.39,North,-999,-999.0,0.0,27,0.00,,,0.00,meteohub,2013-01-26 20:12:00,
2013-01-26 14:17:00,32.5,1.4,30.38,North,-999,-999.0,0.0,26,0.00,,,0.00,meteohub,2013-01-26 20:17:00,
2013-01-26 14:22:00,32.2,-1.5,30.38,North,-999,-999.0,-999.0,23,0.00,,,0.00,meteohub,2013-01-26 20:22:00,
2013-01-26 14:27:00,30.6,-2.0,30.38,North,-999,-999.0,-999.0,24,0.00,,,0.00,meteohub,2013-01-26 20:27:00,
2013-01-26 14:32:00,30.9,-1.7,30.38,North,-999,-999.0,-999.0,24,0.00,,,0.00,meteohub,2013-01-26 20:32:00,
2013-01-26 14:37:00,31.5,-0.4,30.38,North,-999,-999.0,-999.0,25,0.00,,,0.00,meteohub,2013-01-26 20:37:00,
2013-01-26 14:42:00,31.6,-0.2,30.38,North,0,0.0,-999.0,25,0.00,,,0.00,meteohub,2013-01-26 20:42:00,
2013-01-26 14:47:00,32.2,-1.5,30.38,North,-999,-999.0,0.0,23,0.00,,,0.00,meteohub,2013-01-26 20:47:00,
2013-01-26 14:52:00,29.3,-2.2,30.40,North,-999,-999.0,0.0,25,0.00,,,0.00,meteohub,2013-01-26 20:52:00,
2013-01-26 14:57:00,30.0,-0.8,30.40,North,-999,-999.0,0.0,26,0.00,,,0.00,meteohub,2013-01-26 20:57:00,
2013-01-26 15:02:00,30.0,-1.5,30.40,North,-999,-999.0,-999.0,25,0.00,,,0.00,meteohub,2013-01-26 21:02:00,
2013-01-26 15:07:00,30.7,-1.8,30.40,North,-999,-999.0,-999.0,24,0.00,,,0.00,meteohub,2013-01-26 21:07:00,
2013-01-26 15:12:00,30.4,-2.2,30.40,North,-999,-999.0,-999.0,24,0.00,,,0.00,meteohub,2013-01-26 21:12:00,
2013-01-26 15:17:00,28.6,-2.7,30.40,North,-999,-999.0,-999.0,25,0.00,,,0.00,meteohub,2013-01-26 21:17:00,
2013-01-26 15:22:00,29.3,-2.2,30.39,North,-999,-999.0,-999.0,25,0.00,,,0.00,meteohub,2013-01-26 21:22:00,
2013-01-26 15:27:00,29.3,-2.2,30.39,North,-999,-999.0,-999.0,25,0.00,,,0.00,meteohub,2013-01-26 21:27:00,
2013-01-26 15:32:00,29.7,-1.8,30.39,North,-999,-999.0,-999.0,25,0.00,,,0.00,meteohub,2013-01-26 21:32:00,
2013-01-26 15:37:00,29.3,-2.2,30.39,North,-999,-999.0,-999.0,25,0.00,,,0.00,meteohub,2013-01-26 21:37:00,
2013-01-26 15:42:00,28.0,-6.9,30.39,North,-999,-999.0,-999.0,21,0.00,,,0.00,meteohub,2013-01-26 21:42:00,
2013-01-26 15:47:00,28.0,-6.9,30.40,North,-999,-999.0,-999.0,21,0.00,,,0.00,meteohub,2013-01-26 21:47:00,
2013-01-26 15:52:00,28.4,-2.2,30.39,North,-999,-999.0,-999.0,26,0.00,,,0.00,meteohub,2013-01-26 21:52:00,
2013-01-26 15:57:00,28.0,-6.9,30.40,North,-999,-999.0,-999.0,21,0.00,,,0.00,meteohub,2013-01-26 21:57:00,
2013-01-26 16:02:00,26.6,-8.1,30.41,North,-999,-999.0,-999.0,21,0.00,,,0.00,meteohub,2013-01-26 22:02:00,
2013-01-26 16:07:00,25.9,-6.9,30.41,North,-999,-999.0,-999.0,23,0.00,,,0.00,meteohub,2013-01-26 22:07:00,
2013-01-26 16:12:00,25.3,-6.3,30.40,North,-999,-999.0,-999.0,24,0.00,,,0.00,meteohub,2013-01-26 22:12:00,
2013-01-26 16:17:00,25.2,-5.8,30.40,North,-999,-999.0,-999.0,25,0.00,,,0.00,meteohub,2013-01-26 22:17:00,
2013-01-26 16:22:00,25.5,-5.4,30.40,North,-999,-999.0,-999.0,25,0.00,,,0.00,meteohub,2013-01-26 22:22:00,
2013-01-26 16:27:00,25.3,-5.6,30.40,North,-999,-999.0,-999.0,25,0.00,,,0.00,meteohub,2013-01-26 22:27:00,
2013-01-26 16:32:00,25.0,-6.0,30.40,North,-999,-999.0,-999.0,25,0.00,,,0.00,meteohub,2013-01-26 22:32:00,
2013-01-26 16:37:00,24.6,-4.5,30.40,North,-999,-999.0,-999.0,27,0.00,,,0.00,meteohub,2013-01-26 22:37:00,
2013-01-26 16:42:00,24.3,-4.9,30.40,North,-999,-999.0,-999.0,27,0.00,,,0.00,meteohub,2013-01-26 22:42:00,
2013-01-26 16:47:00,24.1,-4.4,30.39,North,-999,-999.0,-999.0,28,0.00,,,0.00,meteohub,2013-01-26 22:47:00,
2013-01-26 16:52:00,23.9,-4.5,30.39,North,-999,-999.0,-999.0,28,0.00,,,0.00,meteohub,2013-01-26 22:52:00,
2013-01-26 16:57:00,23.5,-4.0,30.39,North,-999,-999.0,-999.0,29,0.00,,,0.00,meteohub,2013-01-26 22:57:00,
2013-01-26 17:02:00,23.4,-3.5,30.40,North,-999,-999.0,-999.0,30,0.00,,,0.00,meteohub,2013-01-26 23:02:00,
2013-01-26 17:07:00,23.0,-3.8,30.40,North,-999,-999.0,-999.0,30,0.00,,,0.00,meteohub,2013-01-26 23:07:00,
2013-01-26 17:12:00,22.6,-3.5,30.41,North,-999,-999.0,-999.0,31,0.00,,,0.00,meteohub,2013-01-26 23:12:00,
2013-01-26 17:17:00,22.3,-1.8,30.41,SW,225,0.0,-999.0,34,0.00,,,0.00,meteohub,2013-01-26 23:17:00,
2013-01-26 17:22:00,22.5,1.8,30.40,SW,225,0.0,0.0,40,0.00,,,0.00,meteohub,2013-01-26 23:22:00,
2013-01-26 17:27:00,22.5,2.8,30.40,North,-999,-999.0,0.0,42,0.00,,,0.00,meteohub,2013-01-26 23:27:00,
2013-01-26 17:32:00,22.1,3.6,30.40,North,-999,-999.0,0.0,44,0.00,,,0.00,meteohub,2013-01-26 23:32:00,
2013-01-26 17:37:00,21.9,3.7,30.40,North,-999,-999.0,-999.0,45,0.00,,,0.00,meteohub,2013-01-26 23:37:00,
2013-01-26 17:42:00,21.7,4.1,30.40,North,-999,-999.0,-999.0,46,0.00,,,0.00,meteohub,2013-01-26 23:42:00,
2013-01-26 17:47:00,21.7,4.1,30.40,East,90,0.0,0.0,46,0.00,,,0.00,meteohub,2013-01-26 23:47:00,
2013-01-26 17:52:00,21.6,3.9,30.40,North,-999,-999.0,0.0,46,0.00,,,0.00,meteohub,2013-01-26 23:52:00,
2013-01-26 17:57:00,21.4,4.3,30.40,North,-999,-999.0,0.0,47,0.00,,,0.00,meteohub,2013-01-26 23:57:00,
2013-01-26 18:02:00,21.2,4.1,30.41,North,-999,-999.0,-999.0,47,0.00,,,0.00,meteohub,2013-01-27 00:02:00,
2013-01-26 18:07:00,21.4,4.3,30.41,South,180,0.0,0.0,47,0.00,,,0.00,meteohub,2013-01-27 00:07:00,
2013-01-26 18:12:00,21.4,4.3,30.41,North,-999,-999.0,0.0,47,0.00,,,0.00,meteohub,2013-01-27 00:12:00,
2013-01-26 18:17:00,21.4,3.7,30.40,South,180,0.0,0.0,46,0.00,,,0.00,meteohub,2013-01-27 00:17:00,
2013-01-26 18:22:00,21.6,3.9,30.41,North,-999,-999.0,0.0,46,0.00,,,0.00,meteohub,2013-01-27 00:22:00,
2013-01-26 18:27:00,21.6,3.6,30.41,North,-999,-999.0,0.0,45,0.00,,,0.00,meteohub,2013-01-27 00:27:00,
2013-01-26 18:32:00,21.6,3.0,30.41,SW,225,0.0,0.0,44,0.00,,,0.00,meteohub,2013-01-27 00:32:00,
2013-01-26 18:37:00,21.6,2.5,30.41,North,-999,-999.0,0.0,43,0.00,,,0.00,meteohub,2013-01-27 00:37:00,
2013-01-26 18:42:00,21.6,2.5,30.41,North,-999,-999.0,0.0,43,0.00,,,0.00,meteohub,2013-01-27 00:42:00,
2013-01-26 18:47:00,21.6,2.5,30.41,East,90,0.0,-999.0,43,0.00,,,0.00,meteohub,2013-01-27 00:47:00,
2013-01-26 18:52:00,21.6,2.5,30.41,North,-999,-999.0,0.0,43,0.00,,,0.00,meteohub,2013-01-27 00:52:00,
2013-01-26 18:57:00,21.4,2.3,30.41,North,-999,-999.0,0.0,43,0.00,,,0.00,meteohub,2013-01-27 00:57:00,
2013-01-26 19:02:00,21.4,2.3,30.41,North,-999,-999.0,0.0,43,0.00,,,0.00,meteohub,2013-01-27 01:02:00,
2013-01-26 19:07:00,21.2,2.1,30.42,North,-999,-999.0,-999.0,43,0.00,,,0.00,meteohub,2013-01-27 01:07:00,
2013-01-26 19:12:00,21.2,2.1,30.42,North,-999,-999.0,-999.0,43,0.00,,,0.00,meteohub,2013-01-27 01:12:00,
2013-01-26 19:17:00,21.2,2.1,30.42,North,-999,-999.0,-999.0,43,0.00,,,0.00,meteohub,2013-01-27 01:17:00,
2013-01-26 19:22:00,21.2,2.7,30.42,North,-999,-999.0,-999.0,44,0.00,,,0.00,meteohub,2013-01-27 01:22:00,
2013-01-26 19:27:00,21.2,2.7,30.41,North,-999,-999.0,-999.0,44,0.00,,,0.00,meteohub,2013-01-27 01:27:00,
2013-01-26 19:32:00,21.2,2.7,30.42,East,90,0.0,-999.0,44,0.00,,,0.00,meteohub,2013-01-27 01:32:00,
2013-01-26 19:37:00,21.4,2.8,30.41,SE,135,0.0,0.0,44,0.00,,,0.00,meteohub,2013-01-27 01:37:00,
2013-01-26 19:42:00,21.4,2.8,30.41,North,-999,-999.0,0.0,44,0.00,,,0.00,meteohub,2013-01-27 01:42:00,
2013-01-26 19:47:00,21.4,2.8,30.41,North,-999,-999.0,0.0,44,0.00,,,0.00,meteohub,2013-01-27 01:47:00,
2013-01-26 19:52:00,21.2,2.1,30.41,North,-999,-999.0,-999.0,43,0.00,,,0.00,meteohub,2013-01-27 01:52:00,
2013-01-26 19:57:00,21.2,2.1,30.41,North,-999,-999.0,-999.0,43,0.00,,,0.00,meteohub,2013-01-27 01:57:00,
2013-01-26 20:02:00,21.2,2.1,30.41,North,-999,-999.0,-999.0,43,0.00,,,0.00,meteohub,2013-01-27 02:02:00,
2013-01-26 20:07:00,21.2,2.1,30.41,North,-999,-999.0,-999.0,43,0.00,,,0.00,meteohub,2013-01-27 02:07:00,
2013-01-26 20:12:00,21.2,2.1,30.41,North,-999,-999.0,-999.0,43,0.00,,,0.00,meteohub,2013-01-27 02:12:00,
2013-01-26 20:17:00,21.4,2.8,30.41,North,-999,-999.0,-999.0,44,0.00,,,0.00,meteohub,2013-01-27 02:17:00,
2013-01-26 20:22:00,21.4,2.8,30.41,North,-999,-999.0,-999.0,44,0.00,,,0.00,meteohub,2013-01-27 02:22:00,
2013-01-26 20:27:00,21.4,2.8,30.41,North,-999,-999.0,-999.0,44,0.00,,,0.00,meteohub,2013-01-27 02:27:00,
2013-01-26 20:32:00,21.4,2.8,30.41,North,-999,-999.0,-999.0,44,0.00,,,0.00,meteohub,2013-01-27 02:32:00,
2013-01-26 20:37:00,21.4,2.8,30.42,North,-999,-999.0,-999.0,44,0.00,,,0.00,meteohub,2013-01-27 02:37:00,
2013-01-26 20:42:00,21.4,2.8,30.42,North,-999,-999.0,-999.0,44,0.00,,,0.00,meteohub,2013-01-27 02:42:00,
2013-01-26 20:47:00,21.4,3.4,30.43,North,-999,-999.0,-999.0,45,0.00,,,0.00,meteohub,2013-01-27 02:47:00,
2013-01-26 20:52:00,21.4,3.4,30.43,South,180,0.0,-999.0,45,0.00,,,0.00,meteohub,2013-01-27 02:52:00,
2013-01-26 20:57:00,21.4,3.4,30.42,SE,135,0.0,0.0,45,0.00,,,0.00,meteohub,2013-01-27 02:57:00,
2013-01-26 21:02:00,21.2,3.6,30.42,North,-999,-999.0,0.0,46,0.00,,,0.00,meteohub,2013-01-27 03:02:00,
2013-01-26 21:07:00,21.2,3.6,30.43,North,-999,-999.0,0.0,46,0.00,,,0.00,meteohub,2013-01-27 03:07:00,
2013-01-26 21:12:00,21.2,3.6,30.42,SE,135,0.0,0.0,46,0.00,,,0.00,meteohub,2013-01-27 03:12:00,
2013-01-26 21:17:00,21.2,4.1,30.42,SE,135,0.0,0.0,47,0.00,,,0.00,meteohub,2013-01-27 03:17:00,
2013-01-26 21:22:00,21.2,4.1,30.43,North,-999,-999.0,0.0,47,0.00,,,0.00,meteohub,2013-01-27 03:22:00,
2013-01-26 21:27:00,21.2,4.1,30.43,North,-999,-999.0,0.0,47,0.00,,,0.00,meteohub,2013-01-27 03:27:00,
2013-01-26 21:32:00,21.2,4.6,30.42,North,-999,-999.0,0.0,48,0.00,,,0.00,meteohub,2013-01-27 03:32:00,
2013-01-26 21:37:00,21.4,4.8,30.42,North,-999,-999.0,-999.0,48,0.00,,,0.00,meteohub,2013-01-27 03:37:00,
2013-01-26 21:42:00,21.4,4.8,30.42,North,-999,-999.0,-999.0,48,0.00,,,0.00,meteohub,2013-01-27 03:42:00,
2013-01-26 21:47:00,21.6,5.4,30.42,North,-999,-999.0,-999.0,49,0.00,,,0.00,meteohub,2013-01-27 03:47:00,
2013-01-26 21:52:00,21.6,5.4,30.42,North,-999,-999.0,-999.0,49,0.00,,,0.00,meteohub,2013-01-27 03:52:00,
2013-01-26 21:57:00,21.7,5.5,30.42,North,-999,-999.0,-999.0,49,0.00,,,0.00,meteohub,2013-01-27 03:57:00,
2013-01-26 22:02:00,21.9,5.2,30.42,South,180,0.0,-999.0,48,0.00,,,0.00,meteohub,2013-01-27 04:02:00,
2013-01-26 22:07:00,21.9,5.2,30.42,South,180,0.0,0.0,48,0.00,,,0.00,meteohub,2013-01-27 04:07:00,
2013-01-26 22:12:00,22.1,5.4,30.42,North,-999,-999.0,0.0,48,0.00,,,0.00,meteohub,2013-01-27 04:12:00,
2013-01-26 22:17:00,22.1,5.9,30.42,North,-999,-999.0,0.0,49,0.00,,,0.00,meteohub,2013-01-27 04:17:00,
2013-01-26 22:22:00,22.3,6.1,30.42,North,-999,-999.0,-999.0,49,0.00,,,0.00,meteohub,2013-01-27 04:22:00,
2013-01-26 22:27:00,22.5,6.3,30.42,North,-999,-999.0,-999.0,49,0.00,,,0.00,meteohub,2013-01-27 04:27:00,
2013-01-26 22:32:00,22.5,6.3,30.42,North,-999,-999.0,-999.0,49,0.00,,,0.00,meteohub,2013-01-27 04:32:00,
2013-01-26 22:37:00,22.5,6.3,30.42,North,-999,-999.0,-999.0,49,0.00,,,0.00,meteohub,2013-01-27 04:37:00,
2013-01-26 22:42:00,22.6,6.4,30.42,North,-999,-999.0,-999.0,49,0.00,,,0.00,meteohub,2013-01-27 04:42:00,
2013-01-26 22:47:00,22.6,6.4,30.41,North,-999,-999.0,-999.0,49,0.00,,,0.00,meteohub,2013-01-27 04:47:00,
2013-01-26 22:52:00,22.6,6.4,30.41,North,-999,-999.0,-999.0,49,0.00,,,0.00,meteohub,2013-01-27 04:52:00,
2013-01-26 22:57:00,22.6,6.4,30.40,North,-999,-999.0,-999.0,49,0.00,,,0.00,meteohub,2013-01-27 04:57:00,
2013-01-26 23:02:00,22.6,6.4,30.40,North,-999,-999.0,-999.0,49,0.00,,,0.00,meteohub,2013-01-27 05:02:00,
2013-01-26 23:12:00,22.8,7.0,30.41,North,-999,-999.0,-999.0,50,0.00,,,0.00,meteohub,2013-01-27 05:12:00,
2013-01-26 23:17:00,22.8,7.0,30.41,North,-999,-999.0,-999.0,50,0.00,,,0.00,meteohub,2013-01-27 05:17:00,
2013-01-26 23:22:00,23.0,6.6,30.40,North,-999,-999.0,-999.0,49,0.00,,,0.00,meteohub,2013-01-27 05:22:00,
2013-01-26 23:27:00,23.0,6.6,30.40,North,-999,-999.0,-999.0,49,0.00,,,0.00,meteohub,2013-01-27 05:27:00,
2013-01-26 23:32:00,23.0,6.6,30.40,South,180,0.0,0.0,49,0.00,,,0.00,meteohub,2013-01-27 05:32:00,
2013-01-26 23:37:00,23.0,6.6,30.40,North,-999,-999.0,0.0,49,0.00,,,0.00,meteohub,2013-01-27 05:37:00,
2013-01-26 23:42:00,23.0,6.6,30.40,North,-999,-999.0,0.0,49,0.00,,,0.00,meteohub,2013-01-27 05:42:00,
2013-01-26 23:47:00,23.2,6.8,30.40,North,-999,-999.0,-999.0,49,0.00,,,0.00,meteohub,2013-01-27 05:47:00,
2013-01-26 23:52:00,23.2,6.8,30.40,North,-999,-999.0,-999.0,49,0.00,,,0.00,meteohub,2013-01-27 05:52:00,
2013-01-26 23:57:00,23.2,6.4,30.40,SW,225,0.0,0.0,48,0.00,,,0.00,meteohub,2013-01-27 05:57:00,